Volver al catálogo

STARLINK-30214

ActivoComunicacionesVLEO
NORAD 57411·PAYLOAD·🇺🇸 United States

Lanzado Jul 20, 2023 desde Vandenberg Space Force Base

Loading…

Próximos Pases (próximas 24 horas)

TLE

ActualizadoSource: CelesTrak SupGP

Época: Sep 14, 2026, 21:05 UTC

1 57411C 23102H   26257.87895833  .00030334  00000+0  10992-2 0  2571
2 57411  43.0021 260.0409 0001815 264.1429 154.0707 15.27549445    15

Sigue STARLINK-30214 en tiempo real con AllMySat

Download on the App Store